Puerto Limon, Costa Rica

6:19 PM CST on July 27, 2017 (GMT -0600)
Limon International

Weather History for MRLM - December, 2013

Change the Weather History Date:

Monday, December 16, 2013

  Actual Average Record
Temperature  
Mean Temperature 78 °F -  
Max Temperature 83 °F 80 °F 86 °F (2001)
Min Temperature 72 °F 71 °F 66 °F (2005)
Cooling Degree Days 12    
Growing Degree Days 28 (Base 50)    
Moisture  
Dew Point 73 °F    
Average Humidity 83    
Maximum Humidity 89    
Minimum Humidity 74    
Precipitation  
Precipitation 0.12 in 0.47 in - ()
Sea Level Pressure  
Sea Level Pressure 29.86 in    
Wind  
Wind Speed 7 mph ()    
Max Wind Speed 17 mph    
Max Gust Speed -    
Visibility 6.6 miles    
Events Rain    
Averages and records for this station are not official NWS values.
T = Trace of Precipitation, MM = Missing Value Source: Averaged Metar Reports

Daily Weather History Graph

Daily Weather History Graph

Search for Another Location

Airport or City:

Trip Planner

Search our weather history database for the weather conditions in past years. The results will help you decide how hot, cold, wet, or windy it might be!

Date:

Astronomy

Dec. 16, 2013 Rise Set
Actual Time 5:41 AM CST 5:14 PM CST
Civil Twilight 5:18 AM CST 5:37 PM CST
Nautical Twilight 4:52 AM CST 6:03 PM CST
Astronomical Twilight 4:26 AM CST 6:29 PM CST
Moon 4:54 PM CST (12/16) 4:58 AM CST (12/16)
Length of Visible Light 12h 18m
Length of Day
11h 32m
Full, 100% of the Moon is Illuminated
Dec 16
Full
Dec 17
Full
Dec 25
Last Quarter
Jan 1
New
Jan 7
First Quarter

Hourly Weather History & Observations

Time (CST) Temp. Heat Index Dew Point Humidity Pressure Visibility Wind Dir Wind Speed Gust Speed Precip Events Conditions
6:00 AM 74 °F - 71 °F 86% 29.87 in 9 mi SW 4.6 mph - -   Haze
6:00 AM 73.4 °F - 69.8 °F 88% 29.86 in 6.2 mi SW 4.6 mph - N/A   Mostly Cloudy
7:00 AM 75.2 °F - 71.6 °F 89% 29.87 in - NW 5.8 mph - N/A   Clear
8:00 AM 77.0 °F - 71.6 °F 83% 29.89 in - WNW 8.1 mph - N/A   Clear
9:00 AM 79 °F - 72 °F 75% 29.91 in 9 mi WNW 6.9 mph - -   Overcast
9:00 AM 78.8 °F - 73.4 °F 83% 29.90 in 6.2 mi WNW 6.9 mph - N/A   Mostly Cloudy
10:00 AM 78.8 °F - 73.4 °F 83% 29.90 in 6.2 mi NW 5.8 mph - N/A   Drizzle
11:00 AM 82.4 °F 89.5 °F 75.2 °F 79% 29.88 in 6.2 mi NNW 9.2 mph - N/A   Mostly Cloudy
12:00 PM 81 °F - 74 °F 75% 29.88 in 9 mi NNW 11.5 mph - -   Haze
12:00 PM 80.6 °F 86.2 °F 75.2 °F 84% 29.87 in 6.2 mi NNW 11.5 mph - N/A   Mostly Cloudy
1:00 PM 82.4 °F 89.5 °F 75.2 °F 79% 29.85 in 6.2 mi NNW 10.4 mph - N/A   Scattered Clouds
2:00 PM 80.6 °F 85.4 °F 73.4 °F 79% 29.83 in 6.2 mi North 13.8 mph - N/A   Overcast
2:20 PM 80.6 °F 86.2 °F 75.2 °F 84% 29.82 in 3.7 mi NNW 6.9 mph - N/A   Heavy Drizzle
3:00 PM 78 °F - 74 °F 84% 29.83 in 5 mi NNE 15.0 mph - - Rain Light Drizzle
3:00 PM 77.0 °F - 73.4 °F 89% 29.82 in 5.0 mi NNE 15.0 mph - N/A   Drizzle
4:00 PM 78.8 °F - 73.4 °F 83% 29.82 in 6.2 mi ENE 17.3 mph - N/A   Mostly Cloudy
5:00 PM 80.6 °F 84.6 °F 71.6 °F 74% 29.85 in 6.2 mi East 4.6 mph - N/A   Scattered Clouds
6:00 PM 76 °F - 73 °F 87% 29.88 in 9 mi West 3.5 mph - -   Overcast
6:00 PM 77.0 °F - 73.4 °F 89% 29.86 in 6.2 mi West 3.5 mph - N/A   Scattered Clouds